Location: Góry Miechowskie
(50.3599°N, 20.1803°E)
Time: 16:02:52
(UTC+00:00)

Tiros 1 - Pass Details

Date: 19 September 2024
Orbit: 623 x 654 km, 48.4° (Epoch: 11 October)

Event Time Altitude Azimuth Distance (km) Brightness Sun altitude
Rises 18:04:32 0° 281° (W) 2,909 12.4 -13.5°
Reaches altitude 10° 18:07:05 10° 269° (W) 2,004 10.9 -13.9°
Maximum altitude 18:11:00 28° 211° (SSW) 1,186 8.6 -14.5°
Enters shadow 18:14:14 14° 158° (SSE) 1,785 9.0 -15.0°
